CUBEBUG-2 (LO-74)

Last updated on Tue Jul 08 2025 00:03:06 GMT+0000 (Coordinated Universal Time)

1 39440U 13066AA 25188.61419272 .00002593 00000+0 26426-3 0 9993 2 39440 97.8499 132.9836 0063564 87.6180 273.2313 14.90085569625612
UTC large
Height (km)
Speed (km/s)
/
Latitude / Longitude
Inclination (degrees)
Orbital Period (minutes)
Azimuth
Elevation
Range (km)
Doppler Factor

Next 0 passes for location: London (51.5072 / 0.1276)

Sorry there are no passes over London.